Tracking 19490 objects as of 24-Jan-2019
HD Live streaming from Space Station
objects crossing your sky now

FENGYUN 1C DEB

Track FENGYUN 1C DEB now!
10-day predictions


NORAD ID: 32098
Int'l Code: 1999-025CQQ
Perigee: 697.1 km
Apogee: 994.8 km
Inclination: 98.7 °
Period: 101.7 minutes
Semi major axis: 7216 km
RCS: 0.0108 m2 (small)
Launch date: May 10, 1999
Source: People's Republic of China (PRC)
Launch site: Taiyaun Space Center, China (TSC)

Note: This is SATELLITE DEBRIS
aabbcc
Your satellite tracking list
Your tracking list is empty




NASA's NSSDC Master Catalog

Two Line Element Set (TLE):
1 32098U 99025CQQ 19020.30609123 +.00000066 +00000-0 +45485-4 0  9995
2 32098 098.7029 055.5157 0206266 167.3213 193.3262 14.16038718285563
Source of the keplerian elements: AFSPC